Time,TemperatureF,DewpointF,PressureIn,WindDirection,WindDirectionDegrees,WindSpeedMPH,WindSpeedGustMPH,Humidity,HourlyPrecipIn,Conditions,Clouds,dailyrainin,SolarRadiationWatts/m^2,SoftwareType,DateUTC
2013-02-14 00:00:00,31.0,30.0,-100.00,WSW,247,4.0,-999.0,93,-99.99,,,-99.99,0.000000,,2013-02-14 06:00:00,
2013-02-14 00:42:00,31.0,30.0,-100.00,WSW,247,4.0,-999.0,93,-99.99,,,-99.99,0.000000,,2013-02-14 06:42:00,
2013-02-14 00:52:00,31.0,30.0,-100.00,WSW,247,4.0,-999.0,93,-99.99,,,-99.99,0.000000,,2013-02-14 06:52:00,
2013-02-14 03:00:00,31.0,29.0,-100.00,SW,225,0.0,-999.0,93,-99.99,,,-99.99,0.000000,,2013-02-14 09:00:00,
2013-02-14 03:42:00,31.0,29.0,-100.00,SW,225,0.0,-999.0,93,-99.99,,,-99.99,0.000000,,2013-02-14 09:42:00,
2013-02-14 03:52:00,31.0,29.0,-100.00,SW,225,0.0,-999.0,93,-99.99,,,-99.99,0.000000,,2013-02-14 09:52:00,
2013-02-14 06:00:00,30.0,30.0,-100.00,NE,45,0.0,-999.0,97,-99.99,,,-99.99,0.000000,,2013-02-14 12:00:00,
2013-02-14 06:42:00,30.0,30.0,-100.00,NE,45,0.0,-999.0,97,-99.99,,,-99.99,0.000000,,2013-02-14 12:42:00,
2013-02-14 06:53:00,30.0,30.0,-100.00,NE,45,0.0,-999.0,97,-99.99,,,-99.99,0.000000,,2013-02-14 12:53:00,
2013-02-14 09:00:00,30.0,29.0,-100.00,NNE,22,5.0,-999.0,96,-99.99,,,-99.99,13.920000,,2013-02-14 15:00:00,
2013-02-14 09:42:00,30.0,29.0,-100.00,NNE,22,5.0,-999.0,96,-99.99,,,-99.99,13.920000,,2013-02-14 15:42:00,
2013-02-14 09:52:00,30.0,29.0,-100.00,NNE,22,5.0,-999.0,96,-99.99,,,-99.99,13.920000,,2013-02-14 15:52:00,
2013-02-14 12:00:00,30.0,28.0,-100.00,NNE,22,10.0,-999.0,91,-99.99,,,-99.99,42.919998,,2013-02-14 18:00:00,
2013-02-14 12:42:00,30.0,28.0,-100.00,NNE,22,10.0,-999.0,91,-99.99,,,-99.99,42.919998,,2013-02-14 18:42:00,
2013-02-14 12:52:00,30.0,28.0,-100.00,NNE,22,10.0,-999.0,91,-99.99,,,-99.99,42.919998,,2013-02-14 18:52:00,
2013-02-14 15:00:00,30.0,29.0,-100.00,North,0,10.0,-999.0,93,-99.99,,,-99.99,34.799999,,2013-02-14 21:00:00,
2013-02-14 15:42:00,30.0,29.0,-100.00,North,0,10.0,-999.0,93,-99.99,,,-99.99,34.799999,,2013-02-14 21:42:00,
2013-02-14 15:52:00,30.0,29.0,-100.00,North,0,10.0,-999.0,93,-99.99,,,-99.99,34.799999,,2013-02-14 21:52:00,
2013-02-14 18:00:00,25.0,23.0,-100.00,North,0,9.0,-999.0,91,-99.99,,,-99.99,1.160000,,2013-02-15 00:00:00,
2013-02-14 18:42:00,25.0,23.0,-100.00,North,0,9.0,-999.0,91,-99.99,,,-99.99,1.160000,,2013-02-15 00:42:00,
2013-02-14 18:52:00,25.0,23.0,-100.00,North,0,9.0,-999.0,91,-99.99,,,-99.99,1.160000,,2013-02-15 00:52:00,
2013-02-14 21:00:00,22.0,13.0,-100.00,NNW,337,10.0,-999.0,68,-99.99,,,-99.99,0.000000,,2013-02-15 03:00:00,
2013-02-14 21:42:00,22.0,13.0,-100.00,NNW,337,10.0,-999.0,68,-99.99,,,-99.99,0.000000,,2013-02-15 03:42:00,
2013-02-14 21:52:00,22.0,13.0,-100.00,NNW,337,10.0,-999.0,68,-99.99,,,-99.99,0.000000,,2013-02-15 03:52:00,